Temperature
7 7 7 8 8 9 9 9 9 9 9 9 9 9 9 9 9 10 10 10 10 10 10 10 10 10 10 10 10 10 9 9 9 9 9 9 9 9 10 10 9 9 9
7 7 7 7 7 8 8 8 8 9 9 9 9 9 9 9 9 9 9 9 9 9 9 9 10 10 9 9 9 9 9 9 9 9 8 8 8 9 9 9 9 9 9
6 7 7 7 7 7 7 8 8 8 8 8 8 8 8 8 8 8 8 9 9 9 9 9 9 9 9 9 9 9 9 9 9 9 8 8 9 9 9 9 9 9 9
5 6 6 6 7 7 7 7 7 8 8 8 7 7 7 8 8 8 8 8 8 8 8 8 8 8 9 9 9 9 9 8 8 8 8 8 9 8 8 8 9 9 9
5 5 5 6 6 6 7 7 7 7 7 7 7 7 7 7 7 7 7 7 8 8 8 8 8 8 8 8 8 8 8 8 8 8 8 8 8 8 8 8 8 8 8
4 4 5 5 5 6 6 6 6 6 6 6 6 6 6 6 6 7 7 7 7 7 7 7 7 8 8 8 8 8 8 8 8 8 8 8 7 7 7 7 7 7 8
4 4 4 4 4 4 5 5 5 5 6 6 6 6 6 6 6 6 6 6 6 7 7 7 7 7 7 7 7 7 7 7 7 7 7 7 7 7 7 7 7 7 7
3 3 3 3 3 4 4 4 5 5 5 5 5 5 5 5 5 5 5 5 5 6 6 6 6 6 7 7 7 7 7 7 6 6 6 6 6 6 7 6 6 6 6
2 2 2 2 2 3 3 4 4 4 4 4 4 5 5 5 5 5 5 5 5 5 5 6 6 6 6 6 6 6 6 6 6 6 6 6 6 6 6 6 6 5 5
2 2 2 2 2 2 2 2 3 3 3 3 4 4 4 4 4 4 4 4 4 4 5 5 5 5 5 5 6 6 5 5 5 5 5 5 5 5 5 5 5 5 5
1 1 1 1 1 1 1 2 2 2 2 3 3 3 3 3 3 3 3 4 4 4 4 4 4 4 5 5 5 5 5 5 5 5 5 5 5 5 5 5 5 5 5
1 1 1 1 1 1 1 1 1 2 2 2 2 2 3 3 3 3 3 3 3 3 3 3 3 4 4 4 4 4 4 4 4 4 4 4 4 4 4 4 4 4 4
0 0 0 0 0 0 0 1 1 1 1 1 2 2 2 2 2 2 2 2 2 3 2 3 3 3 3 3 4 4 4 4 4 4 4 4 4 4 4 4 4 4 4
-0 -0 -0 -0 -0 -0 -0 0 0 1 1 1 1 1 1 1 2 2 2 2 2 2 2 2 2 2 2 3 3 3 3 3 3 3 3 3 3 3 3 3 3 3 3
-0 -0 -1 -1 -1 -1 -0 -0 0 0 0 1 1 1 1 1 1 1 1 1 1 1 1 1 1 1 2 2 2 2 2 2 2 3 3 3 3 3 3 3 3 3 3
-1 -1 -1 -1 -1 -1 -1 -1 -0 -0 -0 -0 0 0 1 1 1 1 0 0 0 0 1 1 1 1 1 1 1 2 2 2 2 2 2 2 2 2 2 2 2 2 2
-2 -2 -2 -2 -2 -1 -1 -1 -1 -1 -1 -1 -0 -0 0 0 0 0 -0 -0 -0 -0 0 0 0 0 1 1 1 1 1 1 1 1 1 1 2 2 2 2 2 2 2
-2 -2 -2 -2 -2 -2 -2 -1 -1 -1 -1 -1 -1 -1 -1 -0 -0 -1 -1 -1 -1 -1 -1 -1 -0 -0 -0 0 0 0 0 1 1 1 1 1 1 1 2 2 1 1 1
-2 -3 -3 -2 -2 -2 -2 -2 -2 -2 -2 -1 -1 -1 -1 -1 -1 -1 -1 -1 -1 -1 -1 -1 -1 -1 -1 -0 -0 -0 -0 0 0 0 0 1 1 1 1 1 1 1 1
-3 -3 -3 -3 -3 -3 -3 -3 -2 -2 -2 -2 -2 -2 -2 -1 -1 -1 -1 -1 -2 -2 -1 -1 -1 -1 -1 -1 -1 -1 -1 -1 -1 -0 -0 0 0 0 0 0 0 -0 0
-3 -3 -3 -3 -3 -3 -3 -3 -3 -3 -3 -2 -2 -2 -2 -2 -2 -2 -2 -2 -2 -2 -2 -2 -2 -2 -2 -2 -1 -1 -1 -1 -1 -1 -1 -0 -0 -0 -0 -0 -0 -0 -1
-3 -4 -3 -3 -3 -3 -3 -3 -3 -3 -3 -3 -3 -3 -2 -2 -2 -2 -2 -2 -2 -2 -2 -2 -2 -2 -2 -2 -2 -2 -2 -2 -2 -2 -1 -1 -1 -1 -1 -1 -1 -1 -1
-4 -4 -3 -3 -3 -3 -3 -4 -3 -3 -3 -3 -3 -3 -3 -3 -3 -3 -3 -3 -3 -3 -3 -3 -3 -3 -3 -3 -3 -2 -2 -2 -2 -2 -2 -2 -2 -2 -2 -1 -1 -1 -2
-4 -4 -4 -4 -4 -4 -4 -4 -4 -4 -4 -4 -4 -3 -3 -3 -3 -3 -3 -3 -3 -3 -4 -4 -4 -4 -3 -3 -3 -3 -3 -3 -3 -3 -2 -2 -2 -2 -2 -2 -2 -2 -2
-4 -4 -4 -4 -4 -4 -4 -4 -4 -4 -4 -4 -4 -4 -4 -4 -4 -4 -4 -4 -4 -4 -4 -4 -4 -4 -4 -4 -4 -4 -3 -3 -3 -3 -3 -3 -3 -3 -3 -3 -3 -3 -3
-5 -5 -4 -4 -4 -4 -4 -4 -4 -4 -5 -4 -4 -4 -4 -4 -4 -4 -4 -4 -4 -4 -4 -4 -4 -4 -4 -4 -4 -4 -3 -3 -3 -3 -4 -4 -4 -4 -4 -4 -4 -3 -3
Wind_Speed
3 2 2 2 1 1 1 1 1 2 2 3 3 3 3 3 3 3 3 4 5 6 6 5 5 6 6 7 8 6 7 5 5 4 3 4 6 6 6 6 6 6 7
2 2 2 2 2 2 1 2 2 2 3 3 3 3 2 2 3 3 3 4 4 6 6 6 5 6 5 7 8 7 5 5 6 5 4 4 5 6 6 6 6 7 6
4 3 3 2 2 3 3 3 3 3 3 3 3 2 2 2 2 3 3 4 5 5 6 7 6 6 6 6 7 8 8 6 6 6 5 4 5 3 5 7 7 7 6
4 4 3 3 3 4 3 3 3 3 2 3 4 5 4 4 4 3 3 4 4 5 6 6 7 7 6 7 7 7 7 7 6 6 6 5 3 4 3 5 6 7 7
4 4 4 4 4 4 3 3 3 3 3 3 4 5 5 4 3 3 4 4 4 4 5 6 6 6 6 7 7 7 7 7 6 5 5 6 4 6 5 5 5 5 6
4 4 4 4 4 4 4 3 3 3 3 3 3 5 6 5 5 5 4 4 3 3 4 4 5 6 6 6 6 7 8 7 8 7 6 5 5 6 6 7 7 6 6
3 4 4 4 4 4 4 3 3 3 3 3 3 4 5 5 6 5 4 4 3 3 4 4 5 5 6 6 7 7 7 8 8 8 6 7 7 5 5 6 6 6 5
4 4 5 5 5 5 4 4 3 3 3 3 3 3 4 4 4 5 4 4 4 4 4 4 5 6 6 6 7 6 7 7 8 8 8 6 7 6 6 5 5 6 6
4 4 5 5 5 5 4 4 4 4 4 3 3 4 3 4 4 4 4 4 4 4 5 5 5 5 6 6 7 7 7 7 7 7 8 7 6 6 6 6 6 6 7
4 5 5 5 5 4 4 4 4 4 4 3 3 3 3 3 4 4 4 4 5 4 5 5 5 5 5 6 6 6 7 7 7 6 7 7 6 6 6 6 6 7 7
4 5 5 5 5 4 4 4 4 4 4 4 3 3 3 3 3 3 4 5 5 5 5 6 6 6 6 6 6 6 6 7 7 7 8 8 7 6 6 6 6 6 6
4 5 5 5 5 5 5 5 5 4 4 4 4 4 4 4 4 4 4 5 5 5 5 6 6 6 6 6 7 7 7 7 8 8 8 8 6 7 6 6 7 7 7
5 5 5 5 5 5 5 5 5 5 5 4 4 4 4 4 5 5 4 5 5 5 6 6 6 6 6 7 7 7 7 8 8 8 9 8 8 9 7 8 7 7 7
5 5 5 5 5 6 6 6 6 5 5 5 4 5 5 5 5 5 5 5 5 5 6 6 6 6 6 7 7 7 7 7 7 7 8 9 9 9 9 8 8 7 7
6 6 6 6 6 6 6 6 6 6 5 5 5 5 5 5 5 5 5 5 5 6 5 6 6 6 6 6 7 7 7 7 7 7 8 8 9 9 8 7 7 7 7
8 7 7 7 7 7 7 7 7 6 5 5 6 5 5 5 5 5 5 5 5 5 5 6 6 6 5 6 8 7 7 7 7 7 8 8 8 9 10 10 10 10 9
8 8 8 8 8 8 7 7 6 6 5 5 5 5 5 5 5 5 5 5 5 5 5 6 6 7 7 8 8 8 7 7 7 8 7 6 6 8 7 8 8 9 11
8 8 8 8 8 8 7 6 5 5 5 5 5 5 5 5 5 5 5 5 5 5 5 6 6 6 7 7 8 8 7 7 7 7 7 7 7 7 7 6 6 6 7
8 8 7 8 7 7 5 5 5 5 5 5 5 5 5 5 5 5 5 5 4 5 5 5 6 6 7 7 7 6 5 5 6 6 6 6 7 7 7 6 6 6 5
6 6 6 6 6 6 5 5 5 4 5 5 5 5 5 5 5 5 5 5 5 5 5 5 5 6 6 6 7 6 4 5 5 4 5 6 7 6 6 6 6 6 6
6 5 5 5 5 5 4 4 5 5 5 5 5 4 4 4 4 5 4 4 4 4 4 5 5 5 5 6 6 6 4 4 4 4 4 4 5 5 6 6 5 6 5
5 5 5 5 5 4 3 4 5 5 4 4 4 4 4 4 4 4 4 4 4 4 4 4 4 4 4 4 5 6 6 5 4 4 4 3 4 4 5 4 3 3 3
5 5 5 5 5 4 3 4 5 4 4 4 4 4 4 4 4 4 4 4 3 3 3 3 4 4 3 4 5 6 5 5 4 3 3 3 3 3 3 3 3 3 3
5 5 5 5 5 4 4 4 4 4 4 4 4 3 4 4 3 3 3 3 4 4 4 4 4 4 4 3 3 3 3 3 3 3 2 2 2 2 2 2 2 2 2
5 4 5 5 5 5 4 4 3 3 4 4 4 4 4 4 3 3 3 4 4 4 4 4 4 4 4 5 5 4 3 3 3 2 2 2 2 2 2 2 1 1 1
4 4 5 5 5 5 5 4 4 3 3 4 4 3 3 3 3 3 3 4 5 6 6 6 6 5 6 7 6 6 5 5 3 2 2 2 2 2 2 2 2 2 2
Wind_Direction
279 299 302 299 306 316 281 268 266 261 228 204 207 219 230 228 226 228 227 220 216 210 211 209 205 205 207 207 204 203 203 204 195 199 221 230 230 228 221 219 220 216 217
264 283 287 280 289 291 292 277 260 253 246 237 227 230 233 230 229 230 224 223 221 215 214 211 207 207 213 210 205 203 204 208 201 203 212 225 222 221 224 223 226 226 220
268 276 281 278 277 282 284 281 265 251 250 243 228 213 218 221 224 225 229 232 229 228 224 219 217 211 213 215 210 205 207 209 208 211 212 224 231 223 215 223 225 225 225
268 280 288 290 287 284 281 272 268 267 256 236 224 221 225 232 239 235 237 242 238 237 235 228 223 221 217 219 218 211 210 209 211 215 227 241 261 234 227 215 222 229 232
268 279 284 287 291 291 287 276 269 264 254 238 232 225 231 238 239 237 240 242 242 241 243 235 229 227 225 224 221 217 214 214 215 216 215 224 237 243 244 247 235 232 233
283 292 299 301 302 305 300 289 278 275 268 251 242 233 230 230 230 233 239 243 245 241 245 243 234 229 227 225 223 220 218 218 221 221 219 219 220 223 232 245 246 248 242
290 299 307 308 307 306 303 294 288 287 280 262 252 248 244 235 233 234 235 240 249 253 250 248 240 232 230 227 224 224 223 220 223 225 226 229 233 231 234 244 249 256 259
297 299 305 307 304 303 300 297 292 289 287 273 266 262 261 247 244 242 240 242 248 252 252 249 246 240 236 232 228 227 227 225 225 228 228 231 233 231 231 238 245 256 256
302 305 313 312 308 304 300 295 290 289 288 282 276 267 264 255 252 251 246 247 252 254 253 247 247 246 241 236 233 231 229 229 227 228 229 232 235 235 235 236 237 244 252
308 312 317 319 317 314 309 304 295 291 291 285 279 274 266 268 262 259 253 251 254 255 255 248 245 245 244 241 237 236 231 230 231 229 229 231 234 236 234 233 237 243 248
305 311 316 318 316 316 316 308 303 299 297 292 280 274 270 268 267 260 260 257 256 256 255 250 244 242 242 240 237 236 233 233 235 233 231 231 231 233 232 233 233 235 241
311 314 315 315 315 314 314 310 303 298 295 292 287 278 268 261 260 261 265 265 260 258 258 256 247 246 242 240 237 236 234 233 236 236 234 232 228 232 232 232 234 236 237
317 316 313 311 311 312 310 308 302 295 293 288 282 275 269 263 261 262 264 265 264 261 257 255 249 246 245 243 242 239 238 239 240 240 239 235 230 233 234 234 236 239 240
306 308 309 309 309 309 306 303 298 295 291 284 276 272 271 266 264 263 260 261 262 260 258 258 254 248 247 247 247 244 241 242 245 248 247 241 234 235 236 236 237 239 241
303 303 301 304 306 305 303 300 298 294 288 280 273 270 273 270 266 262 260 259 259 258 256 258 257 253 248 249 252 246 242 243 247 251 252 248 242 241 242 241 237 234 237
298 300 299 300 300 299 298 298 295 292 285 274 272 274 272 270 269 261 259 258 258 255 253 254 255 255 252 259 259 257 248 245 246 250 254 253 246 243 243 243 241 238 236
287 290 293 294 294 293 292 291 292 290 283 276 274 276 273 268 270 265 258 259 259 257 255 257 258 258 261 264 262 258 254 252 250 251 254 256 251 249 247 244 243 244 243
286 289 291 292 293 291 290 289 289 284 281 279 276 274 271 266 270 269 261 260 260 259 260 262 265 264 265 265 263 261 257 257 253 252 251 252 253 250 246 245 248 250 248
287 290 291 291 291 290 288 285 281 284 284 283 280 277 268 264 265 267 268 263 259 259 260 261 265 266 267 267 267 263 260 256 255 256 251 248 251 249 247 240 243 251 258
293 297 299 296 295 294 286 278 280 283 285 288 285 278 269 265 266 269 271 265 257 258 263 266 268 268 270 271 266 262 255 256 259 259 251 246 249 249 245 241 239 241 249
303 304 301 296 295 292 280 276 280 283 290 291 286 279 274 273 272 273 270 264 260 262 265 270 276 275 275 274 269 267 257 252 257 255 252 249 249 248 250 254 246 242 248
313 312 307 305 303 296 277 277 283 290 293 290 285 283 284 281 274 271 269 265 262 265 268 271 279 282 282 280 276 269 268 267 254 251 250 252 253 259 261 260 249 243 251
315 318 314 311 312 309 285 281 291 294 291 289 288 288 289 287 281 276 272 271 265 263 267 270 277 287 289 287 287 278 274 273 267 263 268 267 268 272 268 260 251 255 246
316 318 317 313 315 316 304 290 298 298 291 290 291 290 288 289 285 278 270 270 266 265 264 264 271 281 285 286 286 284 276 279 272 269 267 259 269 273 270 259 261 263 253
314 315 314 314 316 320 319 313 306 299 292 293 291 287 281 281 283 280 277 273 268 264 264 266 267 269 274 281 287 282 276 275 264 260 257 255 256 260 253 255 260 262 249
316 319 319 318 319 323 323 324 317 301 291 289 290 284 282 283 282 286 298 291 277 282 275 274 271 272 275 284 283 283 282 280 266 253 241 245 246 248 248 240 240 242 237
Height
1490 1490 1490 1490 1490 1491 1491 1492 1493 1493 1493 1494 1495 1496 1497 1497 1498 1499 1500 1501 1502 1504 1505 1507 1508 1509 1511 1512 1514 1515 1516 1518 1519 1521 1521 1521 1522 1522 1522 1523 1523 1524 1525
1488 1487 1487 1487 1487 1488 1488 1489 1489 1489 1490 1490 1492 1492 1493 1494 1494 1495 1496 1497 1498 1499 1500 1502 1503 1505 1506 1508 1509 1511 1512 1513 1515 1517 1518 1518 1519 1517 1518 1519 1519 1520 1521
1485 1485 1485 1484 1485 1485 1485 1486 1486 1486 1486 1487 1488 1489 1489 1490 1491 1491 1492 1493 1494 1495 1496 1497 1499 1500 1502 1503 1504 1506 1507 1508 1510 1512 1514 1515 1514 1514 1514 1514 1515 1516 1516
1483 1482 1482 1482 1482 1482 1483 1483 1483 1483 1483 1483 1483 1484 1484 1485 1486 1487 1488 1489 1490 1491 1492 1493 1494 1495 1497 1498 1499 1501 1502 1504 1505 1507 1508 1510 1510 1511 1510 1510 1511 1511 1512
1481 1480 1479 1479 1479 1479 1479 1479 1479 1479 1480 1480 1480 1480 1481 1482 1482 1483 1484 1485 1485 1486 1487 1488 1489 1491 1492 1493 1494 1496 1497 1498 1500 1501 1503 1504 1505 1506 1507 1506 1506 1507 1507
1479 1478 1477 1477 1477 1476 1476 1475 1475 1475 1476 1476 1476 1476 1477 1477 1478 1478 1479 1480 1481 1481 1482 1483 1484 1485 1487 1488 1489 1490 1492 1493 1495 1496 1497 1498 1500 1501 1502 1502 1502 1502 1502
1477 1475 1475 1474 1473 1472 1472 1472 1472 1472 1472 1472 1472 1473 1473 1473 1474 1474 1475 1475 1476 1477 1478 1479 1479 1480 1482 1483 1484 1485 1487 1487 1489 1491 1492 1493 1494 1496 1497 1498 1497 1496 1496
1474 1473 1472 1471 1470 1469 1468 1468 1468 1468 1468 1468 1468 1469 1469 1469 1469 1470 1470 1471 1472 1472 1473 1474 1474 1475 1477 1478 1478 1479 1481 1482 1483 1485 1486 1487 1489 1490 1491 1492 1492 1491 1491
1472 1471 1470 1469 1467 1466 1465 1465 1464 1464 1464 1464 1465 1465 1465 1465 1465 1466 1466 1467 1467 1468 1468 1469 1469 1470 1471 1472 1473 1474 1475 1476 1478 1479 1480 1481 1482 1483 1485 1485 1486 1488 1486
1470 1469 1468 1466 1465 1464 1463 1462 1461 1461 1461 1461 1461 1461 1461 1462 1462 1462 1462 1462 1463 1463 1463 1464 1465 1465 1466 1467 1468 1469 1469 1471 1472 1473 1474 1475 1476 1477 1478 1479 1480 1481 1481
1469 1467 1466 1465 1463 1462 1460 1459 1458 1458 1457 1457 1457 1457 1457 1458 1457 1457 1458 1458 1458 1459 1459 1460 1460 1460 1461 1462 1463 1463 1464 1465 1466 1467 1468 1468 1470 1471 1472 1473 1473 1474 1475
1467 1465 1464 1462 1461 1459 1458 1457 1456 1455 1454 1454 1453 1453 1453 1453 1453 1453 1453 1454 1454 1454 1454 1455 1455 1455 1456 1457 1458 1458 1459 1460 1461 1462 1462 1463 1464 1464 1465 1466 1467 1468 1468
1464 1463 1462 1460 1458 1457 1456 1454 1453 1452 1451 1451 1450 1450 1449 1449 1449 1449 1449 1449 1449 1450 1450 1450 1450 1450 1451 1452 1453 1453 1454 1454 1455 1456 1456 1457 1458 1458 1459 1460 1460 1461 1462
1462 1461 1459 1457 1456 1454 1453 1452 1450 1449 1448 1447 1446 1446 1446 1445 1445 1445 1445 1445 1445 1445 1445 1446 1446 1446 1446 1447 1448 1448 1448 1449 1450 1450 1451 1451 1451 1452 1453 1453 1454 1455 1455
1459 1458 1456 1455 1453 1452 1450 1448 1447 1446 1445 1444 1443 1442 1442 1441 1441 1441 1441 1441 1441 1441 1441 1441 1441 1441 1441 1441 1442 1443 1443 1443 1444 1444 1445 1445 1445 1445 1446 1447 1448 1449 1449
1456 1455 1453 1451 1450 1448 1446 1445 1443 1442 1441 1440 1439 1438 1438 1437 1437 1437 1436 1436 1436 1436 1436 1436 1436 1436 1436 1436 1437 1437 1438 1438 1439 1439 1439 1440 1440 1440 1440 1441 1442 1443 1443
1453 1451 1449 1448 1446 1444 1442 1441 1440 1438 1437 1436 1435 1434 1434 1433 1433 1432 1432 1432 1432 1432 1432 1431 1431 1431 1431 1431 1432 1432 1433 1433 1433 1433 1434 1434 1434 1434 1435 1435 1436 1437 1437
1449 1447 1445 1443 1442 1440 1438 1437 1436 1434 1433 1432 1431 1430 1430 1429 1429 1428 1428 1428 1428 1427 1427 1427 1427 1426 1426 1427 1427 1427 1427 1427 1428 1428 1428 1428 1428 1429 1429 1429 1430 1430 1431
1445 1443 1441 1439 1438 1436 1434 1433 1432 1431 1429 1428 1427 1427 1426 1426 1425 1425 1424 1424 1424 1423 1423 1423 1422 1422 1421 1422 1422 1422 1422 1422 1422 1423 1423 1423 1424 1424 1424 1425 1424 1425 1425
1441 1439 1437 1435 1433 1432 1431 1430 1429 1428 1426 1425 1424 1423 1423 1422 1422 1421 1420 1420 1420 1419 1419 1418 1418 1417 1417 1417 1417 1418 1417 1417 1417 1417 1418 1418 1419 1419 1419 1420 1420 1420 1420
1437 1435 1433 1431 1429 1428 1427 1426 1425 1424 1423 1422 1421 1420 1419 1419 1418 1418 1417 1416 1416 1415 1414 1414 1413 1413 1412 1412 1412 1413 1413 1413 1413 1413 1413 1414 1414 1415 1415 1415 1415 1415 1416
1434 1432 1430 1428 1426 1425 1424 1423 1422 1421 1420 1419 1418 1417 1416 1416 1415 1414 1413 1413 1412 1411 1410 1410 1409 1409 1408 1408 1408 1409 1409 1409 1409 1409 1409 1410 1410 1410 1411 1411 1411 1411 1412
1431 1429 1427 1425 1424 1423 1421 1420 1419 1418 1417 1416 1415 1414 1413 1412 1412 1411 1410 1409 1409 1408 1407 1406 1405 1405 1405 1405 1405 1405 1405 1406 1406 1405 1406 1406 1406 1406 1406 1407 1407 1407 1407
1430 1428 1426 1424 1422 1421 1419 1418 1417 1415 1415 1413 1412 1411 1411 1410 1409 1408 1407 1406 1405 1404 1403 1403 1402 1402 1402 1402 1401 1401 1402 1402 1402 1402 1402 1403 1403 1403 1403 1403 1403 1403 1403
1428 1426 1424 1422 1420 1418 1417 1416 1414 1413 1412 1411 1410 1409 1408 1407 1406 1405 1404 1403 1402 1401 1401 1400 1400 1399 1398 1399 1399 1399 1399 1399 1399 1399 1399 1399 1399 1399 1399 1399 1399 1399 1400
1427 1425 1423 1420 1418 1417 1415 1414 1412 1411 1410 1409 1408 1407 1406 1405 1403 1402 1401 1399 1399 1398 1398 1397 1397 1396 1396 1396 1396 1396 1396 1396 1396 1396 1395 1395 1396 1396 1396 1396 1396 1396 1397